Time,TemperatureF,DewpointF,PressureIn,WindDirection,WindDirectionDegrees,WindSpeedMPH,WindSpeedGustMPH,Humidity,HourlyPrecipIn,Conditions,Clouds,dailyrainin,SoftwareType,DateUTC
2013-03-26 00:04:00,35.0,28.8,29.61,NW,305,2.0,6.0,78,0.00,,,0.00,Wunderground v.1.15,2013-03-26 04:04:00,
2013-03-26 00:09:00,35.0,28.8,29.60,NNW,342,2.0,3.0,78,0.00,,,0.00,Wunderground v.1.15,2013-03-26 04:09:00,
2013-03-26 00:14:00,35.0,28.8,29.61,NNW,328,1.0,4.0,78,0.00,,,0.00,Wunderground v.1.15,2013-03-26 04:14:00,
2013-03-26 00:20:00,35.0,28.5,29.60,NNW,330,2.0,2.0,77,0.00,,,0.00,Wunderground v.1.15,2013-03-26 04:20:00,
2013-03-26 00:25:00,35.1,28.6,29.60,North,360,1.0,5.0,77,0.00,,,0.00,Wunderground v.1.15,2013-03-26 04:25:00,
2013-03-26 00:31:00,35.1,28.3,29.61,North,5,2.0,4.0,76,0.00,,,0.00,Wunderground v.1.15,2013-03-26 04:31:00,
2013-03-26 00:37:00,35.1,28.3,29.61,NW,314,2.0,5.0,76,0.00,,,0.00,Wunderground v.1.15,2013-03-26 04:37:00,
2013-03-26 00:43:00,35.1,28.3,29.61,NW,305,2.0,5.0,76,0.00,,,0.00,Wunderground v.1.15,2013-03-26 04:43:00,
2013-03-26 00:48:00,35.2,28.4,29.61,North,10,2.0,5.0,76,0.00,,,0.00,Wunderground v.1.15,2013-03-26 04:48:00,
2013-03-26 00:53:00,35.2,28.1,29.61,West,270,4.0,4.0,75,0.00,,,0.00,Wunderground v.1.15,2013-03-26 04:53:00,
2013-03-26 00:58:00,35.2,28.1,29.61,NNE,13,2.0,5.0,75,0.00,,,0.00,Wunderground v.1.15,2013-03-26 04:58:00,
2013-03-26 01:04:00,35.2,28.1,29.61,North,355,2.0,3.0,75,0.00,,,0.00,Wunderground v.1.15,2013-03-26 05:04:00,
2013-03-26 01:09:00,35.3,28.2,29.61,NW,308,2.0,2.0,75,0.00,,,0.00,Wunderground v.1.15,2013-03-26 05:09:00,
2013-03-26 01:17:00,35.3,27.8,29.61,NNW,346,1.0,2.0,74,0.00,,,0.00,Wunderground v.1.15,2013-03-26 05:17:00,
2013-03-26 01:22:00,35.2,27.7,29.62,NNW,329,2.0,3.0,74,0.00,,,0.00,Wunderground v.1.15,2013-03-26 05:22:00,
2013-03-26 01:28:00,35.2,27.7,29.62,WNW,297,2.0,3.0,74,0.00,,,0.00,Wunderground v.1.15,2013-03-26 05:28:00,
2013-03-26 01:34:00,35.2,27.7,29.62,WNW,291,2.0,4.0,74,0.00,,,0.00,Wunderground v.1.15,2013-03-26 05:34:00,
2013-03-26 01:40:00,35.2,27.4,29.62,NNW,344,3.0,3.0,73,0.00,,,0.00,Wunderground v.1.15,2013-03-26 05:40:00,
2013-03-26 01:45:00,35.2,27.4,29.62,NNE,22,2.0,5.0,73,0.00,,,0.00,Wunderground v.1.15,2013-03-26 05:45:00,
2013-03-26 01:50:00,35.2,27.4,29.62,West,279,7.0,7.0,73,0.00,,,0.00,Wunderground v.1.15,2013-03-26 05:50:00,
2013-03-26 01:57:00,35.2,27.4,29.62,NNE,17,2.0,7.0,73,0.00,,,0.00,Wunderground v.1.15,2013-03-26 05:57:00,
2013-03-26 02:02:00,35.1,27.3,29.62,NNW,331,2.0,3.0,73,0.00,,,0.00,Wunderground v.1.15,2013-03-26 06:02:00,
2013-03-26 02:07:00,35.1,27.0,29.62,NNE,29,0.0,3.0,72,0.00,,,0.00,Wunderground v.1.15,2013-03-26 06:07:00,
2013-03-26 02:13:00,35.1,27.0,29.62,North,355,2.0,3.0,72,0.00,,,0.00,Wunderground v.1.15,2013-03-26 06:13:00,
2013-03-26 02:19:00,35.6,28.8,29.62,NNW,346,3.0,3.0,76,0.00,,,0.00,Wunderground v.1.15,2013-03-26 06:19:00,
2013-03-26 02:24:00,37.3,33.2,29.63,West,281,3.0,6.0,85,0.00,,,0.00,Wunderground v.1.15,2013-03-26 06:24:00,
2013-03-26 02:29:00,36.3,28.1,29.63,North,11,2.0,3.0,72,0.00,,,0.00,Wunderground v.1.15,2013-03-26 06:29:00,
2013-03-26 02:34:00,35.8,27.3,29.63,NNW,330,1.0,8.0,71,0.00,,,0.00,Wunderground v.1.15,2013-03-26 06:34:00,
2013-03-26 02:39:00,35.4,26.9,29.63,West,260,3.0,4.0,71,0.00,,,0.00,Wunderground v.1.15,2013-03-26 06:39:00,
2013-03-26 02:44:00,35.2,26.7,29.63,West,259,1.0,4.0,71,0.00,,,0.00,Wunderground v.1.15,2013-03-26 06:44:00,
2013-03-26 02:49:00,35.1,27.0,29.63,NNW,342,4.0,4.0,72,0.00,,,0.00,Wunderground v.1.15,2013-03-26 06:49:00,
2013-03-26 02:55:00,35.1,26.6,29.63,NNW,340,1.0,5.0,71,0.00,,,0.00,Wunderground v.1.15,2013-03-26 06:55:00,
2013-03-26 03:00:00,35.0,26.5,29.62,NNW,331,4.0,6.0,71,0.00,,,0.00,Wunderground v.1.15,2013-03-26 07:00:00,
2013-03-26 03:05:00,35.0,26.9,29.63,WNW,296,5.0,6.0,72,0.00,,,0.00,Wunderground v.1.15,2013-03-26 07:05:00,
2013-03-26 03:10:00,35.0,26.9,29.63,NNW,336,1.0,5.0,72,0.00,,,0.00,Wunderground v.1.15,2013-03-26 07:10:00,
2013-03-26 03:15:00,34.9,26.4,29.63,NNE,29,1.0,7.0,71,0.00,,,0.00,Wunderground v.1.15,2013-03-26 07:15:00,
2013-03-26 03:20:00,35.0,26.5,29.63,NE,34,2.0,3.0,71,0.00,,,0.00,Wunderground v.1.15,2013-03-26 07:20:00,
2013-03-26 03:25:00,35.0,26.5,29.63,WNW,302,1.0,4.0,71,0.00,,,0.00,Wunderground v.1.15,2013-03-26 07:25:00,
2013-03-26 03:30:00,34.8,26.4,29.63,NW,313,3.0,4.0,71,0.00,,,0.00,Wunderground v.1.15,2013-03-26 07:30:00,
2013-03-26 03:35:00,34.8,26.4,29.64,NW,304,0.0,4.0,71,0.00,,,0.00,Wunderground v.1.15,2013-03-26 07:35:00,
2013-03-26 03:40:00,34.8,26.4,29.64,NW,311,1.0,3.0,71,0.00,,,0.00,Wunderground v.1.15,2013-03-26 07:40:00,
2013-03-26 03:45:00,34.7,26.3,29.63,NW,324,1.0,4.0,71,0.00,,,0.00,Wunderground v.1.15,2013-03-26 07:45:00,
2013-03-26 03:50:00,34.8,26.4,29.64,WNW,292,2.0,4.0,71,0.00,,,0.00,Wunderground v.1.15,2013-03-26 07:50:00,
2013-03-26 03:55:00,34.8,26.4,29.64,NNW,336,2.0,4.0,71,0.00,,,0.00,Wunderground v.1.15,2013-03-26 07:55:00,
2013-03-26 04:00:00,34.8,26.4,29.64,NNW,329,2.0,3.0,71,0.00,,,0.00,Wunderground v.1.15,2013-03-26 08:00:00,
2013-03-26 04:05:00,34.8,26.4,29.64,NNW,346,0.0,3.0,71,0.00,,,0.00,Wunderground v.1.15,2013-03-26 08:05:00,
2013-03-26 04:10:00,34.7,26.3,29.64,NNW,347,1.0,4.0,71,0.00,,,0.00,Wunderground v.1.15,2013-03-26 08:10:00,
2013-03-26 04:15:00,34.8,26.4,29.64,WNW,302,0.0,4.0,71,0.00,,,0.00,Wunderground v.1.15,2013-03-26 08:15:00,
2013-03-26 04:20:00,34.8,26.4,29.64,NW,317,1.0,2.0,71,0.00,,,0.00,Wunderground v.1.15,2013-03-26 08:20:00,
2013-03-26 04:25:00,34.8,26.7,29.65,NW,316,2.0,3.0,72,0.00,,,0.00,Wunderground v.1.15,2013-03-26 08:25:00,
2013-03-26 04:30:00,34.7,26.6,29.65,NNW,346,3.0,4.0,72,0.00,,,0.00,Wunderground v.1.15,2013-03-26 08:30:00,
2013-03-26 04:35:00,34.7,26.3,29.65,NNE,19,3.0,5.0,71,0.00,,,0.00,Wunderground v.1.15,2013-03-26 08:35:00,
2013-03-26 04:40:00,34.7,26.3,29.65,North,360,2.0,5.0,71,0.00,,,0.00,Wunderground v.1.15,2013-03-26 08:40:00,
2013-03-26 04:45:00,34.7,26.3,29.65,NW,304,1.0,6.0,71,0.00,,,0.00,Wunderground v.1.15,2013-03-26 08:45:00,
2013-03-26 04:50:00,36.5,32.1,29.65,North,350,0.0,2.0,84,0.00,,,0.00,Wunderground v.1.15,2013-03-26 08:50:00,
2013-03-26 04:55:00,38.7,35.2,29.66,NNE,31,3.0,4.0,87,0.00,,,0.00,Wunderground v.1.15,2013-03-26 08:55:00,
2013-03-26 05:00:00,37.8,33.1,29.66,NW,319,0.0,2.0,83,0.00,,,0.00,Wunderground v.1.15,2013-03-26 09:00:00,
2013-03-26 05:05:00,38.9,35.1,29.66,NW,305,1.0,4.0,86,0.00,,,0.00,Wunderground v.1.15,2013-03-26 09:05:00,
2013-03-26 05:10:00,39.6,35.8,29.66,NNW,342,1.0,7.0,86,0.00,,,0.00,Wunderground v.1.15,2013-03-26 09:10:00,
2013-03-26 05:15:00,37.9,31.0,29.66,WNW,298,1.0,7.0,76,0.00,,,0.00,Wunderground v.1.15,2013-03-26 09:15:00,
2013-03-26 05:21:00,38.9,35.1,29.66,NNE,21,1.0,5.0,86,0.00,,,0.00,Wunderground v.1.15,2013-03-26 09:21:00,
2013-03-26 05:26:00,38.8,33.8,29.66,WNW,291,2.0,5.0,82,0.00,,,0.00,Wunderground v.1.15,2013-03-26 09:26:00,
2013-03-26 05:31:00,37.9,30.0,29.67,WNW,302,2.0,5.0,73,0.00,,,0.00,Wunderground v.1.15,2013-03-26 09:31:00,
2013-03-26 05:36:00,36.1,27.3,29.66,WNW,296,3.0,5.0,70,0.00,,,0.00,Wunderground v.1.15,2013-03-26 09:36:00,
2013-03-26 05:41:00,34.9,26.4,29.67,WNW,299,4.0,8.0,71,0.00,,,0.00,Wunderground v.1.15,2013-03-26 09:41:00,
2013-03-26 05:46:00,34.3,26.5,29.67,NW,304,2.0,8.0,73,0.00,,,0.00,Wunderground v.1.15,2013-03-26 09:46:00,
2013-03-26 05:51:00,34.0,26.3,29.67,NW,312,1.0,3.0,73,0.00,,,0.00,Wunderground v.1.15,2013-03-26 09:51:00,
2013-03-26 05:56:00,33.9,26.2,29.68,NW,313,3.0,7.0,73,0.00,,,0.00,Wunderground v.1.15,2013-03-26 09:56:00,
2013-03-26 06:01:00,34.8,28.3,29.68,West,267,2.0,6.0,77,0.00,,,0.00,Wunderground v.1.15,2013-03-26 10:01:00,
2013-03-26 06:06:00,35.1,28.9,29.68,West,271,1.0,6.0,78,0.00,,,0.00,Wunderground v.1.15,2013-03-26 10:06:00,
2013-03-26 06:12:00,35.2,28.4,29.68,NNW,336,2.0,7.0,76,0.00,,,0.00,Wunderground v.1.15,2013-03-26 10:12:00,
2013-03-26 06:17:00,34.5,26.7,29.68,NW,320,4.0,7.0,73,0.00,,,0.00,Wunderground v.1.15,2013-03-26 10:17:00,
2013-03-26 06:22:00,34.0,26.6,29.69,WNW,288,1.0,6.0,74,0.00,,,0.00,Wunderground v.1.15,2013-03-26 10:22:00,
2013-03-26 06:27:00,33.9,26.5,29.69,WNW,285,3.0,6.0,74,0.00,,,0.00,Wunderground v.1.15,2013-03-26 10:27:00,
2013-03-26 06:32:00,33.8,26.4,29.69,West,269,1.0,3.0,74,0.00,,,0.00,Wunderground v.1.15,2013-03-26 10:32:00,
2013-03-26 06:37:00,33.8,26.4,29.69,WNW,286,0.0,4.0,74,0.00,,,0.00,Wunderground v.1.15,2013-03-26 10:37:00,
2013-03-26 06:42:00,33.8,26.4,29.70,NW,311,1.0,4.0,74,0.00,,,0.00,Wunderground v.1.15,2013-03-26 10:42:00,
2013-03-26 06:47:00,33.7,26.3,29.70,WNW,301,2.0,4.0,74,0.00,,,0.00,Wunderground v.1.15,2013-03-26 10:47:00,
2013-03-26 06:52:00,33.7,26.3,29.70,NW,313,0.0,3.0,74,0.00,,,0.00,Wunderground v.1.15,2013-03-26 10:52:00,
2013-03-26 06:57:00,33.8,26.4,29.70,NW,313,3.0,3.0,74,0.00,,,0.00,Wunderground v.1.15,2013-03-26 10:57:00,
2013-03-26 07:02:00,33.8,26.4,29.71,NW,313,1.0,4.0,74,0.00,,,0.00,Wunderground v.1.15,2013-03-26 11:02:00,
2013-03-26 07:07:00,33.8,26.4,29.71,West,268,1.0,5.0,74,0.00,,,0.00,Wunderground v.1.15,2013-03-26 11:07:00,
2013-03-26 07:12:00,33.9,26.5,29.71,WNW,299,2.0,4.0,74,0.00,,,0.00,Wunderground v.1.15,2013-03-26 11:12:00,
2013-03-26 07:17:00,33.9,26.5,29.71,WNW,299,2.0,4.0,74,0.00,,,0.00,Wunderground v.1.15,2013-03-26 11:17:00,
2013-03-26 07:22:00,34.0,26.3,29.72,NW,313,0.0,2.0,73,0.00,,,0.00,Wunderground v.1.15,2013-03-26 11:22:00,
2013-03-26 07:27:00,34.1,26.7,29.72,NW,313,0.0,2.0,74,0.00,,,0.00,Wunderground v.1.15,2013-03-26 11:27:00,
2013-03-26 07:32:00,34.1,26.3,29.72,NW,313,0.0,2.0,73,0.00,,,0.00,Wunderground v.1.15,2013-03-26 11:32:00,
2013-03-26 07:37:00,34.2,26.4,29.72,NW,312,1.0,4.0,73,0.00,,,0.00,Wunderground v.1.15,2013-03-26 11:37:00,
2013-03-26 07:42:00,34.3,26.5,29.72,NW,306,1.0,4.0,73,0.00,,,0.00,Wunderground v.1.15,2013-03-26 11:42:00,
2013-03-26 07:48:00,34.4,26.3,29.73,NW,306,0.0,4.0,72,0.00,,,0.00,Wunderground v.1.15,2013-03-26 11:48:00,
2013-03-26 07:53:00,34.5,26.4,29.73,NW,304,3.0,4.0,72,0.00,,,0.00,Wunderground v.1.15,2013-03-26 11:53:00,
2013-03-26 07:58:00,34.6,26.5,29.73,WNW,302,1.0,4.0,72,0.00,,,0.00,Wunderground v.1.15,2013-03-26 11:58:00,
2013-03-26 08:03:00,34.7,26.6,29.73,WNW,302,1.0,2.0,72,0.00,,,0.00,Wunderground v.1.15,2013-03-26 12:03:00,
2013-03-26 08:08:00,34.8,26.4,29.73,WNW,300,1.0,5.0,71,0.00,,,0.00,Wunderground v.1.15,2013-03-26 12:08:00,
2013-03-26 08:13:00,35.0,26.5,29.73,WNW,299,2.0,4.0,71,0.00,,,0.00,Wunderground v.1.15,2013-03-26 12:13:00,
2013-03-26 08:18:00,36.7,32.3,29.73,WNW,295,3.0,5.0,84,0.00,,,0.00,Wunderground v.1.15,2013-03-26 12:18:00,
2013-03-26 08:23:00,36.9,30.7,29.74,WNW,302,1.0,4.0,78,0.00,,,0.00,Wunderground v.1.15,2013-03-26 12:23:00,
2013-03-26 08:28:00,36.3,28.1,29.74,NW,307,3.0,7.0,72,0.00,,,0.00,Wunderground v.1.15,2013-03-26 12:28:00,
2013-03-26 08:33:00,36.3,28.8,29.74,WNW,298,2.0,5.0,74,0.00,,,0.00,Wunderground v.1.15,2013-03-26 12:33:00,
2013-03-26 08:38:00,36.3,28.8,29.74,WNW,302,0.0,7.0,74,0.00,,,0.00,Wunderground v.1.15,2013-03-26 12:38:00,
2013-03-26 08:43:00,36.1,26.9,29.74,NW,307,3.0,5.0,69,0.00,,,0.00,Wunderground v.1.15,2013-03-26 12:43:00,
2013-03-26 08:48:00,35.8,26.6,29.75,WNW,284,2.0,5.0,69,0.00,,,0.00,Wunderground v.1.15,2013-03-26 12:48:00,
2013-03-26 08:53:00,35.7,26.5,29.75,WNW,303,6.0,6.0,69,0.00,,,0.00,Wunderground v.1.15,2013-03-26 12:53:00,
2013-03-26 08:58:00,35.6,26.4,29.75,NW,309,0.0,8.0,69,0.00,,,0.00,Wunderground v.1.15,2013-03-26 12:58:00,
2013-03-26 09:03:00,35.7,26.5,29.75,NNE,28,1.0,5.0,69,0.00,,,0.00,Wunderground v.1.15,2013-03-26 13:03:00,
2013-03-26 09:08:00,35.9,26.7,29.75,WNW,289,0.0,5.0,69,0.00,,,0.00,Wunderground v.1.15,2013-03-26 13:08:00,
2013-03-26 09:13:00,36.0,26.5,29.75,West,281,1.0,8.0,68,0.00,,,0.00,Wunderground v.1.15,2013-03-26 13:13:00,
2013-03-26 09:18:00,36.0,26.1,29.75,West,279,0.0,8.0,67,0.00,,,0.00,Wunderground v.1.15,2013-03-26 13:18:00,
2013-03-26 09:23:00,36.1,26.2,29.75,NNW,340,3.0,5.0,67,0.00,,,0.00,Wunderground v.1.15,2013-03-26 13:23:00,
2013-03-26 09:28:00,36.0,25.4,29.75,WNW,286,2.0,8.0,65,0.00,,,0.00,Wunderground v.1.15,2013-03-26 13:28:00,
2013-03-26 09:33:00,35.8,25.2,29.76,West,260,5.0,9.0,65,0.00,,,0.00,Wunderground v.1.15,2013-03-26 13:33:00,
2013-03-26 09:38:00,35.6,25.0,29.76,North,360,7.0,11.0,65,0.00,,,0.00,Wunderground v.1.15,2013-03-26 13:38:00,
2013-03-26 09:43:00,35.6,24.6,29.76,West,281,1.0,8.0,64,0.00,,,0.00,Wunderground v.1.15,2013-03-26 13:43:00,
2013-03-26 09:48:00,35.9,24.9,29.76,NW,314,5.0,9.0,64,0.00,,,0.00,Wunderground v.1.15,2013-03-26 13:48:00,
2013-03-26 09:53:00,35.8,24.8,29.76,West,267,3.0,10.0,64,0.00,,,0.00,Wunderground v.1.15,2013-03-26 13:53:00,
2013-03-26 09:58:00,35.8,25.2,29.76,WNW,296,2.0,10.0,65,0.00,,,0.00,Wunderground v.1.15,2013-03-26 13:58:00,
2013-03-26 10:03:00,36.1,25.1,29.76,NNE,14,1.0,6.0,64,0.00,,,0.00,Wunderground v.1.15,2013-03-26 14:03:00,
2013-03-26 10:08:00,36.2,25.2,29.76,NNE,26,1.0,13.0,64,0.00,,,0.00,Wunderground v.1.15,2013-03-26 14:08:00,
2013-03-26 10:13:00,36.2,25.2,29.76,NNE,17,4.0,8.0,64,0.00,,,0.00,Wunderground v.1.15,2013-03-26 14:13:00,
2013-03-26 10:18:00,36.2,25.2,29.76,North,355,5.0,8.0,64,0.00,,,0.00,Wunderground v.1.15,2013-03-26 14:18:00,
2013-03-26 10:23:00,35.7,24.7,29.76,NW,326,3.0,10.0,64,0.00,,,0.00,Wunderground v.1.15,2013-03-26 14:23:00,
2013-03-26 10:28:00,35.8,25.2,29.77,NNW,338,6.0,10.0,65,0.00,,,0.00,Wunderground v.1.15,2013-03-26 14:28:00,
2013-03-26 10:33:00,35.8,25.2,29.77,NW,312,2.0,11.0,65,0.00,,,0.00,Wunderground v.1.15,2013-03-26 14:33:00,
2013-03-26 10:38:00,36.2,25.6,29.77,WNW,294,5.0,11.0,65,0.00,,,0.00,Wunderground v.1.15,2013-03-26 14:38:00,
2013-03-26 10:43:00,36.7,26.0,29.77,WNW,284,6.0,9.0,65,0.00,,,0.00,Wunderground v.1.15,2013-03-26 14:43:00,
2013-03-26 10:48:00,37.3,26.6,29.77,NNW,334,2.0,9.0,65,0.00,,,0.00,Wunderground v.1.15,2013-03-26 14:48:00,
2013-03-26 10:53:00,38.0,26.1,29.77,NNW,332,5.0,9.0,62,0.00,,,0.00,Wunderground v.1.15,2013-03-26 14:53:00,
2013-03-26 10:58:00,37.9,26.0,29.77,West,280,4.0,10.0,62,0.00,,,0.00,Wunderground v.1.15,2013-03-26 14:58:00,
2013-03-26 11:03:00,38.2,25.9,29.77,WSW,244,1.0,10.0,61,0.00,,,0.00,Wunderground v.1.15,2013-03-26 15:03:00,
2013-03-26 11:08:00,38.9,27.4,29.77,NNE,24,1.0,10.0,63,0.00,,,0.00,Wunderground v.1.15,2013-03-26 15:08:00,
2013-03-26 11:13:00,40.8,30.7,29.77,West,281,1.0,7.0,67,0.00,,,0.00,Wunderground v.1.15,2013-03-26 15:13:00,
2013-03-26 11:19:00,41.3,27.6,29.77,WNW,285,5.0,10.0,58,0.00,,,0.00,Wunderground v.1.15,2013-03-26 15:19:00,
2013-03-26 11:24:00,40.7,30.2,29.77,WNW,296,7.0,10.0,66,0.00,,,0.00,Wunderground v.1.15,2013-03-26 15:24:00,
2013-03-26 11:29:00,40.7,29.5,29.77,North,10,4.0,10.0,64,0.00,,,0.00,Wunderground v.1.15,2013-03-26 15:29:00,
2013-03-26 11:34:00,42.2,30.5,29.77,WNW,292,4.0,9.0,63,0.00,,,0.00,Wunderground v.1.15,2013-03-26 15:34:00,
2013-03-26 11:39:00,43.6,34.8,29.77,North,5,3.0,4.0,71,0.00,,,0.00,Wunderground v.1.15,2013-03-26 15:39:00,
2013-03-26 11:44:00,42.7,28.1,29.77,West,275,6.0,9.0,56,0.00,,,0.00,Wunderground v.1.15,2013-03-26 15:44:00,
2013-03-26 11:49:00,40.8,26.7,29.77,WSW,255,11.0,11.0,57,0.00,,,0.00,Wunderground v.1.15,2013-03-26 15:49:00,
2013-03-26 11:54:00,39.5,25.9,29.77,NW,325,5.0,13.0,58,0.00,,,0.00,Wunderground v.1.15,2013-03-26 15:54:00,
2013-03-26 11:59:00,39.6,26.8,29.77,West,261,8.0,8.0,60,0.00,,,0.00,Wunderground v.1.15,2013-03-26 15:59:00,
2013-03-26 12:04:00,40.0,26.8,29.77,WNW,287,6.0,11.0,59,0.00,,,0.00,Wunderground v.1.15,2013-03-26 16:04:00,
2013-03-26 12:09:00,39.9,26.3,29.77,NW,306,4.0,5.0,58,0.00,,,0.00,Wunderground v.1.15,2013-03-26 16:09:00,
2013-03-26 12:14:00,40.2,26.6,29.77,West,274,4.0,10.0,58,0.00,,,0.00,Wunderground v.1.15,2013-03-26 16:14:00,
2013-03-26 12:19:00,40.4,26.8,29.76,NNW,332,5.0,5.0,58,0.00,,,0.00,Wunderground v.1.15,2013-03-26 16:19:00,
2013-03-26 12:24:00,40.8,26.7,29.77,NW,309,7.0,13.0,57,0.00,,,0.00,Wunderground v.1.15,2013-03-26 16:24:00,
2013-03-26 12:29:00,41.0,26.5,29.76,NNW,336,5.0,5.0,56,0.00,,,0.00,Wunderground v.1.15,2013-03-26 16:29:00,
2013-03-26 12:34:00,41.0,27.8,29.77,SW,229,3.0,12.0,59,0.00,,,0.00,Wunderground v.1.15,2013-03-26 16:34:00,
2013-03-26 12:39:00,41.7,27.1,29.77,WNW,296,7.0,11.0,56,0.00,,,0.00,Wunderground v.1.15,2013-03-26 16:39:00,
2013-03-26 12:44:00,41.5,27.0,29.76,SW,221,0.0,11.0,56,0.00,,,0.00,Wunderground v.1.15,2013-03-26 16:44:00,
2013-03-26 12:49:00,42.3,27.7,29.77,West,259,4.0,6.0,56,0.00,,,0.00,Wunderground v.1.15,2013-03-26 16:49:00,
2013-03-26 12:54:00,41.7,26.7,29.77,NNW,335,4.0,17.0,55,0.00,,,0.00,Wunderground v.1.15,2013-03-26 16:54:00,
2013-03-26 12:59:00,41.4,26.9,29.77,West,265,7.0,12.0,56,0.00,,,0.00,Wunderground v.1.15,2013-03-26 16:59:00,
2013-03-26 13:04:00,41.2,27.1,29.77,West,263,9.0,12.0,57,0.00,,,0.00,Wunderground v.1.15,2013-03-26 17:04:00,
2013-03-26 13:09:00,40.7,26.6,29.77,WSW,242,2.0,6.0,57,0.00,,,0.00,Wunderground v.1.15,2013-03-26 17:09:00,
2013-03-26 13:14:00,41.1,26.6,29.77,West,277,6.0,16.0,56,0.00,,,0.00,Wunderground v.1.15,2013-03-26 17:14:00,
2013-03-26 13:19:00,41.4,26.9,29.77,NW,321,1.0,8.0,56,0.00,,,0.00,Wunderground v.1.15,2013-03-26 17:19:00,
2013-03-26 13:25:00,41.1,27.0,29.76,WSW,248,5.0,13.0,57,0.00,,,0.00,Wunderground v.1.15,2013-03-26 17:25:00,
2013-03-26 13:30:00,41.8,27.7,29.77,WSW,242,4.0,6.0,57,0.00,,,0.00,Wunderground v.1.15,2013-03-26 17:30:00,
2013-03-26 13:35:00,42.3,27.3,29.77,West,261,4.0,11.0,55,0.00,,,0.00,Wunderground v.1.15,2013-03-26 17:35:00,
2013-03-26 13:40:00,42.4,26.9,29.77,West,265,6.0,7.0,54,0.00,,,0.00,Wunderground v.1.15,2013-03-26 17:40:00,
2013-03-26 13:45:00,42.9,27.4,29.77,WNW,303,5.0,15.0,54,0.00,,,0.00,Wunderground v.1.15,2013-03-26 17:45:00,
2013-03-26 13:50:00,42.7,27.6,29.77,West,273,5.0,9.0,55,0.00,,,0.00,Wunderground v.1.15,2013-03-26 17:50:00,
2013-03-26 13:55:00,42.7,27.2,29.77,NW,316,4.0,11.0,54,0.00,,,0.00,Wunderground v.1.15,2013-03-26 17:55:00,
2013-03-26 14:00:00,43.2,27.2,29.76,West,279,2.0,9.0,53,0.00,,,0.00,Wunderground v.1.15,2013-03-26 18:00:00,
2013-03-26 14:05:00,43.4,27.4,29.76,West,275,3.0,9.0,53,0.00,,,0.00,Wunderground v.1.15,2013-03-26 18:05:00,
2013-03-26 14:10:00,43.6,27.6,29.76,NNW,346,3.0,6.0,53,0.00,,,0.00,Wunderground v.1.15,2013-03-26 18:10:00,
2013-03-26 14:15:00,43.6,28.0,29.76,NW,313,8.0,9.0,54,0.00,,,0.00,Wunderground v.1.15,2013-03-26 18:15:00,
2013-03-26 14:20:00,43.8,27.3,29.76,NNW,328,9.0,14.0,52,0.00,,,0.00,Wunderground v.1.15,2013-03-26 18:20:00,
2013-03-26 14:25:00,44.7,31.2,29.76,NW,311,11.0,14.0,59,0.00,,,0.00,Wunderground v.1.15,2013-03-26 18:25:00,
2013-03-26 14:30:00,44.6,34.7,29.76,WNW,296,3.0,6.0,68,0.00,,,0.00,Wunderground v.1.15,2013-03-26 18:30:00,
2013-03-26 14:35:00,43.8,28.2,29.76,ENE,57,3.0,12.0,54,0.00,,,0.00,Wunderground v.1.15,2013-03-26 18:35:00,
2013-03-26 14:40:00,43.4,27.4,29.77,WNW,301,7.0,12.0,53,0.00,,,0.00,Wunderground v.1.15,2013-03-26 18:40:00,
2013-03-26 14:45:00,42.7,26.7,29.76,NW,308,4.0,12.0,53,0.00,,,0.00,Wunderground v.1.15,2013-03-26 18:45:00,
2013-03-26 14:50:00,42.5,26.6,29.76,West,269,6.0,11.0,53,0.00,,,0.00,Wunderground v.1.15,2013-03-26 18:50:00,
2013-03-26 14:55:00,42.5,26.6,29.76,West,268,5.0,11.0,53,0.00,,,0.00,Wunderground v.1.15,2013-03-26 18:55:00,
2013-03-26 15:00:00,42.7,26.3,29.76,WNW,291,4.0,7.0,52,0.00,,,0.00,Wunderground v.1.15,2013-03-26 19:00:00,
2013-03-26 15:05:00,42.7,26.3,29.76,NW,320,3.0,8.0,52,0.00,,,0.00,Wunderground v.1.15,2013-03-26 19:05:00,
2013-03-26 15:10:00,43.0,26.1,29.76,WNW,301,2.0,5.0,51,0.00,,,0.00,Wunderground v.1.15,2013-03-26 19:10:00,
2013-03-26 15:15:00,43.0,25.1,29.76,WNW,294,5.0,10.0,49,0.00,,,0.00,Wunderground v.1.15,2013-03-26 19:15:00,
2013-03-26 15:21:00,43.3,24.9,29.76,West,275,9.0,9.0,48,0.00,,,0.00,Wunderground v.1.15,2013-03-26 19:21:00,
2013-03-26 15:25:00,43.6,23.6,29.77,North,349,6.0,14.0,45,0.00,,,0.00,Wunderground v.1.15,2013-03-26 19:25:00,
2013-03-26 15:30:00,44.5,23.9,29.76,West,271,3.0,8.0,44,0.00,,,0.00,Wunderground v.1.15,2013-03-26 19:30:00,
2013-03-26 15:35:00,44.6,23.5,29.76,WSW,248,3.0,10.0,43,0.00,,,0.00,Wunderground v.1.15,2013-03-26 19:35:00,
2013-03-26 15:40:00,44.7,23.0,29.76,North,360,5.0,10.0,42,0.00,,,0.00,Wunderground v.1.15,2013-03-26 19:40:00,
2013-03-26 15:45:00,45.1,23.3,29.76,NNW,329,2.0,10.0,42,0.00,,,0.00,Wunderground v.1.15,2013-03-26 19:45:00,
2013-03-26 15:51:00,46.0,24.2,29.76,WNW,300,3.0,4.0,42,0.00,,,0.00,Wunderground v.1.15,2013-03-26 19:51:00,
2013-03-26 15:56:00,45.8,22.8,29.76,WSW,258,2.0,10.0,40,0.00,,,0.00,Wunderground v.1.15,2013-03-26 19:56:00,
2013-03-26 16:02:00,44.7,22.4,29.76,NW,319,4.0,9.0,41,0.00,,,0.00,Wunderground v.1.15,2013-03-26 20:02:00,
2013-03-26 16:07:00,45.0,23.3,29.76,West,259,1.0,9.0,42,0.00,,,0.00,Wunderground v.1.15,2013-03-26 20:07:00,
2013-03-26 16:12:00,46.0,24.2,29.76,WNW,296,5.0,9.0,42,0.00,,,0.00,Wunderground v.1.15,2013-03-26 20:12:00,
2013-03-26 16:17:00,44.9,23.2,29.76,NW,304,2.0,13.0,42,0.00,,,0.00,Wunderground v.1.15,2013-03-26 20:17:00,
2013-03-26 16:22:00,45.0,23.3,29.76,SW,236,6.0,14.0,42,0.00,,,0.00,Wunderground v.1.15,2013-03-26 20:22:00,
2013-03-26 16:27:00,45.1,22.8,29.76,West,259,5.0,14.0,41,0.00,,,0.00,Wunderground v.1.15,2013-03-26 20:27:00,
2013-03-26 16:32:00,45.4,23.6,29.76,West,267,6.0,10.0,42,0.00,,,0.00,Wunderground v.1.15,2013-03-26 20:32:00,
2013-03-26 16:37:00,45.4,23.0,29.77,West,263,4.0,10.0,41,0.00,,,0.00,Wunderground v.1.15,2013-03-26 20:37:00,
2013-03-26 16:42:00,45.2,23.4,29.77,West,272,7.0,11.0,42,0.00,,,0.00,Wunderground v.1.15,2013-03-26 20:42:00,
2013-03-26 16:47:00,45.2,26.7,29.77,West,277,5.0,11.0,48,0.00,,,0.00,Wunderground v.1.15,2013-03-26 20:47:00,
2013-03-26 16:52:00,44.8,23.6,29.77,West,279,2.0,9.0,43,0.00,,,0.00,Wunderground v.1.15,2013-03-26 20:52:00,
2013-03-26 16:57:00,45.2,24.0,29.77,WNW,295,3.0,9.0,43,0.00,,,0.00,Wunderground v.1.15,2013-03-26 20:57:00,
2013-03-26 17:02:00,45.6,27.5,29.77,WNW,301,2.0,7.0,49,0.00,,,0.00,Wunderground v.1.15,2013-03-26 21:02:00,
2013-03-26 17:07:00,46.7,25.4,29.77,West,270,4.0,9.0,43,0.00,,,0.00,Wunderground v.1.15,2013-03-26 21:07:00,
2013-03-26 17:12:00,45.7,22.7,29.78,WNW,288,4.0,8.0,40,0.00,,,0.00,Wunderground v.1.15,2013-03-26 21:12:00,
2013-03-26 17:17:00,45.4,23.6,29.77,West,275,4.0,11.0,42,0.00,,,0.00,Wunderground v.1.15,2013-03-26 21:17:00,
2013-03-26 17:22:00,44.9,22.6,29.78,West,261,7.0,10.0,41,0.00,,,0.00,Wunderground v.1.15,2013-03-26 21:22:00,
2013-03-26 17:27:00,44.5,22.8,29.78,NW,315,3.0,10.0,42,0.00,,,0.00,Wunderground v.1.15,2013-03-26 21:27:00,
2013-03-26 17:32:00,44.5,23.4,29.78,SSW,203,2.0,6.0,43,0.00,,,0.00,Wunderground v.1.15,2013-03-26 21:32:00,
2013-03-26 17:37:00,44.7,23.5,29.78,West,263,7.0,10.0,43,0.00,,,0.00,Wunderground v.1.15,2013-03-26 21:37:00,
2013-03-26 17:42:00,44.9,23.2,29.78,NW,306,5.0,9.0,42,0.00,,,0.00,Wunderground v.1.15,2013-03-26 21:42:00,
2013-03-26 17:47:00,45.5,23.1,29.78,NNW,344,3.0,11.0,41,0.00,,,0.00,Wunderground v.1.15,2013-03-26 21:47:00,
2013-03-26 17:52:00,45.6,22.0,29.78,WSW,254,8.0,10.0,39,0.00,,,0.00,Wunderground v.1.15,2013-03-26 21:52:00,
2013-03-26 17:57:00,45.1,23.3,29.79,WNW,294,4.0,10.0,42,0.00,,,0.00,Wunderground v.1.15,2013-03-26 21:57:00,
2013-03-26 18:02:00,44.8,23.1,29.79,WSW,257,6.0,9.0,42,0.00,,,0.00,Wunderground v.1.15,2013-03-26 22:02:00,
2013-03-26 18:07:00,44.8,23.1,29.79,West,267,2.0,10.0,42,0.00,,,0.00,Wunderground v.1.15,2013-03-26 22:07:00,
2013-03-26 18:12:00,44.9,23.2,29.79,SSW,211,5.0,6.0,42,0.00,,,0.00,Wunderground v.1.15,2013-03-26 22:12:00,
2013-03-26 18:17:00,44.9,23.2,29.79,WSW,248,3.0,10.0,42,0.00,,,0.00,Wunderground v.1.15,2013-03-26 22:17:00,
2013-03-26 18:22:00,45.0,23.3,29.79,WSW,252,1.0,6.0,42,0.00,,,0.00,Wunderground v.1.15,2013-03-26 22:22:00,
2013-03-26 18:28:00,45.1,22.8,29.80,NW,306,4.0,7.0,41,0.00,,,0.00,Wunderground v.1.15,2013-03-26 22:28:00,
2013-03-26 18:33:00,44.9,22.6,29.80,NW,326,8.0,9.0,41,0.00,,,0.00,Wunderground v.1.15,2013-03-26 22:33:00,
2013-03-26 18:38:00,44.7,22.4,29.80,NW,305,4.0,9.0,41,0.00,,,0.00,Wunderground v.1.15,2013-03-26 22:38:00,
2013-03-26 18:43:00,44.5,22.2,29.80,WNW,297,5.0,8.0,41,0.00,,,0.00,Wunderground v.1.15,2013-03-26 22:43:00,
2013-03-26 18:48:00,44.1,22.4,29.81,NNW,328,2.0,8.0,42,0.00,,,0.00,Wunderground v.1.15,2013-03-26 22:48:00,
2013-03-26 18:53:00,43.7,22.1,29.81,NW,309,3.0,8.0,42,0.00,,,0.00,Wunderground v.1.15,2013-03-26 22:53:00,
2013-03-26 18:58:00,43.4,22.4,29.81,WSW,244,3.0,9.0,43,0.00,,,0.00,Wunderground v.1.15,2013-03-26 22:58:00,
2013-03-26 19:03:00,43.2,23.3,29.81,NW,305,3.0,10.0,45,0.00,,,0.00,Wunderground v.1.15,2013-03-26 23:03:00,
2013-03-26 19:08:00,43.1,22.6,29.81,WSW,248,1.0,10.0,44,0.00,,,0.00,Wunderground v.1.15,2013-03-26 23:08:00,
2013-03-26 19:13:00,42.9,22.5,29.81,WSW,250,5.0,5.0,44,0.00,,,0.00,Wunderground v.1.15,2013-03-26 23:13:00,
2013-03-26 19:18:00,42.6,22.7,29.82,West,260,1.0,6.0,45,0.00,,,0.00,Wunderground v.1.15,2013-03-26 23:18:00,
2013-03-26 19:23:00,42.3,22.4,29.82,NW,314,5.0,8.0,45,0.00,,,0.00,Wunderground v.1.15,2013-03-26 23:23:00,
2013-03-26 19:28:00,42.0,22.2,29.82,West,272,3.0,8.0,45,0.00,,,0.00,Wunderground v.1.15,2013-03-26 23:28:00,
2013-03-26 19:33:00,41.8,22.5,29.82,West,259,1.0,5.0,46,0.00,,,0.00,Wunderground v.1.15,2013-03-26 23:33:00,
2013-03-26 19:38:00,41.5,22.2,29.82,West,271,0.0,6.0,46,0.00,,,0.00,Wunderground v.1.15,2013-03-26 23:38:00,
2013-03-26 19:43:00,41.3,22.6,29.82,WNW,292,2.0,7.0,47,0.00,,,0.00,Wunderground v.1.15,2013-03-26 23:43:00,
2013-03-26 19:48:00,41.0,22.3,29.83,WNW,296,3.0,7.0,47,0.00,,,0.00,Wunderground v.1.15,2013-03-26 23:48:00,
2013-03-26 19:53:00,40.8,22.6,29.83,WNW,296,2.0,4.0,48,0.00,,,0.00,Wunderground v.1.15,2013-03-26 23:53:00,
2013-03-26 19:58:00,40.5,22.8,29.83,WNW,296,2.0,4.0,49,0.00,,,0.00,Wunderground v.1.15,2013-03-26 23:58:00,
2013-03-26 20:03:00,40.3,22.6,29.83,WSW,248,3.0,4.0,49,0.00,,,0.00,Wunderground v.1.15,2013-03-27 00:03:00,
2013-03-26 20:08:00,40.2,22.5,29.83,West,275,1.0,4.0,49,0.00,,,0.00,Wunderground v.1.15,2013-03-27 00:08:00,
2013-03-26 20:13:00,40.0,22.4,29.83,WNW,286,4.0,4.0,49,0.00,,,0.00,Wunderground v.1.15,2013-03-27 00:13:00,
2013-03-26 20:19:00,39.8,22.7,29.84,WNW,293,1.0,2.0,50,0.00,,,0.00,Wunderground v.1.15,2013-03-27 00:19:00,
2013-03-26 20:24:00,39.6,22.9,29.84,WNW,293,3.0,4.0,51,0.00,,,0.00,Wunderground v.1.15,2013-03-27 00:24:00,
2013-03-26 20:29:00,39.4,22.8,29.84,WNW,293,2.0,2.0,51,0.00,,,0.00,Wunderground v.1.15,2013-03-27 00:29:00,
2013-03-26 20:34:00,39.1,22.5,29.84,WNW,293,0.0,2.0,51,0.00,,,0.00,Wunderground v.1.15,2013-03-27 00:34:00,
2013-03-26 20:39:00,39.2,29.2,29.84,WNW,293,0.0,3.0,67,0.00,,,0.00,Wunderground v.1.15,2013-03-27 00:39:00,
2013-03-26 20:44:00,40.6,34.0,29.84,WNW,293,1.0,3.0,77,0.00,,,0.00,Wunderground v.1.15,2013-03-27 00:44:00,
2013-03-26 20:49:00,41.4,33.0,29.85,WNW,293,0.0,1.0,72,0.00,,,0.00,Wunderground v.1.15,2013-03-27 00:49:00,
2013-03-26 20:54:00,40.8,24.5,29.85,WNW,293,1.0,2.0,52,0.00,,,0.00,Wunderground v.1.15,2013-03-27 00:54:00,
2013-03-26 20:59:00,39.7,23.0,29.85,WNW,293,0.0,1.0,51,0.00,,,0.00,Wunderground v.1.15,2013-03-27 00:59:00,
2013-03-26 21:04:00,39.0,22.4,29.85,WNW,293,2.0,3.0,51,0.00,,,0.00,Wunderground v.1.15,2013-03-27 01:04:00,
2013-03-26 21:10:00,38.4,22.3,29.85,WNW,293,0.0,2.0,52,0.00,,,0.00,Wunderground v.1.15,2013-03-27 01:10:00,
2013-03-26 21:15:00,38.0,21.9,29.85,WNW,293,1.0,4.0,52,0.00,,,0.00,Wunderground v.1.15,2013-03-27 01:15:00,
2013-03-26 21:20:00,37.8,21.7,29.85,NW,306,1.0,2.0,52,0.00,,,0.00,Wunderground v.1.15,2013-03-27 01:20:00,
2013-03-26 21:25:00,37.5,21.9,29.85,NW,306,1.0,3.0,53,0.00,,,0.00,Wunderground v.1.15,2013-03-27 01:25:00,
2013-03-26 21:30:00,37.3,21.7,29.85,NW,306,1.0,2.0,53,0.00,,,0.00,Wunderground v.1.15,2013-03-27 01:30:00,
2013-03-26 21:35:00,37.2,22.1,29.86,NW,306,1.0,2.0,54,0.00,,,0.00,Wunderground v.1.15,2013-03-27 01:35:00,
2013-03-26 21:40:00,37.0,21.9,29.86,NW,306,0.0,2.0,54,0.00,,,0.00,Wunderground v.1.15,2013-03-27 01:40:00,
2013-03-26 21:45:00,36.9,22.2,29.86,NW,306,2.0,2.0,55,0.00,,,0.00,Wunderground v.1.15,2013-03-27 01:45:00,
2013-03-26 21:50:00,36.7,22.0,29.86,NW,306,0.0,1.0,55,0.00,,,0.00,Wunderground v.1.15,2013-03-27 01:50:00,
2013-03-26 21:55:00,36.5,21.8,29.86,NW,306,0.0,1.0,55,0.00,,,0.00,Wunderground v.1.15,2013-03-27 01:55:00,
2013-03-26 22:00:00,36.2,22.0,29.86,NW,306,1.0,2.0,56,0.00,,,0.00,Wunderground v.1.15,2013-03-27 02:00:00,
2013-03-26 22:05:00,36.1,21.9,29.86,NW,306,2.0,2.0,56,0.00,,,0.00,Wunderground v.1.15,2013-03-27 02:05:00,
2013-03-26 22:10:00,35.9,21.7,29.86,NW,306,2.0,2.0,56,0.00,,,0.00,Wunderground v.1.15,2013-03-27 02:10:00,
2013-03-26 22:15:00,35.8,21.6,29.86,NW,306,0.0,2.0,56,0.00,,,0.00,Wunderground v.1.15,2013-03-27 02:15:00,
2013-03-26 22:20:00,35.7,21.5,29.86,NW,306,0.0,3.0,56,0.00,,,0.00,Wunderground v.1.15,2013-03-27 02:20:00,
2013-03-26 22:25:00,35.6,21.9,29.86,NW,306,0.0,3.0,57,0.00,,,0.00,Wunderground v.1.15,2013-03-27 02:25:00,
2013-03-26 22:30:00,35.5,22.2,29.86,NW,306,0.0,0.0,58,0.00,,,0.00,Wunderground v.1.15,2013-03-27 02:30:00,
2013-03-26 22:35:00,35.4,22.1,29.86,NW,306,2.0,2.0,58,0.00,,,0.00,Wunderground v.1.15,2013-03-27 02:35:00,
2013-03-26 22:40:00,35.2,21.9,29.86,NW,306,0.0,0.0,58,0.00,,,0.00,Wunderground v.1.15,2013-03-27 02:40:00,
2013-03-26 22:45:00,35.1,21.8,29.86,NW,306,0.0,1.0,58,0.00,,,0.00,Wunderground v.1.15,2013-03-27 02:45:00,
2013-03-26 22:50:00,35.0,21.7,29.86,NW,306,1.0,2.0,58,0.00,,,0.00,Wunderground v.1.15,2013-03-27 02:50:00,
2013-03-26 22:55:00,34.9,21.6,29.86,NW,306,0.0,2.0,58,0.00,,,0.00,Wunderground v.1.15,2013-03-27 02:55:00,
2013-03-26 23:00:00,34.7,21.4,29.86,NW,306,0.0,1.0,58,0.00,,,0.00,Wunderground v.1.15,2013-03-27 03:00:00,
2013-03-26 23:05:00,35.0,22.1,29.87,NW,306,0.0,1.0,59,0.00,,,0.00,Wunderground v.1.15,2013-03-27 03:05:00,
2013-03-26 23:10:00,35.7,22.4,29.86,NW,306,0.0,1.0,58,0.00,,,0.00,Wunderground v.1.15,2013-03-27 03:10:00,
2013-03-26 23:15:00,36.1,23.1,29.87,NW,306,0.0,1.0,59,0.00,,,0.00,Wunderground v.1.15,2013-03-27 03:15:00,
2013-03-26 23:20:00,36.4,22.6,29.87,NW,306,0.0,1.0,57,0.00,,,0.00,Wunderground v.1.15,2013-03-27 03:20:00,
2013-03-26 23:25:00,36.7,22.9,29.87,NW,306,0.0,1.0,57,0.00,,,0.00,Wunderground v.1.15,2013-03-27 03:25:00,
2013-03-26 23:30:00,37.0,22.7,29.87,NW,306,1.0,1.0,56,0.00,,,0.00,Wunderground v.1.15,2013-03-27 03:30:00,
2013-03-26 23:35:00,36.7,21.2,29.87,NW,306,1.0,4.0,53,0.00,,,0.00,Wunderground v.1.15,2013-03-27 03:35:00,
2013-03-26 23:40:00,36.0,20.9,29.87,NW,306,1.0,2.0,54,0.00,,,0.00,Wunderground v.1.15,2013-03-27 03:40:00,
2013-03-26 23:41:00,36.3,22.1,29.87,NW,306,0.0,1.0,56,0.00,,,0.00,Wunderground v.1.15,2013-03-27 03:41:00,
2013-03-26 23:42:00,35.9,20.9,29.87,NW,306,0.0,2.0,54,0.00,,,0.00,Wunderground v.1.15,2013-03-27 03:42:00,
2013-03-26 23:43:00,35.9,21.7,29.87,NW,306,1.0,2.0,56,0.00,,,0.00,Wunderground v.1.15,2013-03-27 03:43:00,
2013-03-26 23:44:00,36.0,21.8,29.87,NW,306,1.0,2.0,56,0.00,,,0.00,Wunderground v.1.15,2013-03-27 03:44:00,
2013-03-26 23:45:00,36.0,21.8,29.87,NW,306,0.0,2.0,56,0.00,,,0.00,Wunderground v.1.15,2013-03-27 03:45:00,
2013-03-26 23:46:00,36.3,21.7,29.87,NW,306,1.0,2.0,55,0.00,,,0.00,Wunderground v.1.15,2013-03-27 03:46:00,
2013-03-26 23:47:00,36.1,21.9,29.87,NW,306,0.0,2.0,56,0.00,,,0.00,Wunderground v.1.15,2013-03-27 03:47:00,
2013-03-26 23:49:00,36.2,21.1,29.87,NW,306,1.0,2.0,54,0.00,,,0.00,Wunderground v.1.15,2013-03-27 03:49:00,
2013-03-26 23:50:00,36.1,21.0,29.87,NW,306,0.0,1.0,54,0.00,,,0.00,Wunderground v.1.15,2013-03-27 03:50:00,
2013-03-26 23:51:00,36.2,21.6,29.87,NW,306,1.0,1.0,55,0.00,,,0.00,Wunderground v.1.15,2013-03-27 03:51:00,
2013-03-26 23:56:00,36.2,22.0,29.87,NW,306,1.0,2.0,56,0.00,,,0.00,Wunderground v.1.15,2013-03-27 03:56:00,